Orbital Elements at Epoch 2459200.5 (2020-Dec-17.0) TDB
Reference: JPL 26 (heliocentric ecliptic J2000)
Element | Value | Uncertainty (1-sigma) | Units |
e | .1581645478384561 | 4.3394e-08 | |
a | 2.462880739744565 | 7.9851e-09 | au |
q | 2.073340321162823 | 1.0651e-07 | au |
i | 3.074221391657148 | 2.6754e-06 | deg |
node | 105.0782029658885 | 9.5748e-05 | deg |
peri | 322.360132590793 | 9.6891e-05 | deg |
M | 185.2005515525273 | 1.4788e-05 | deg |
tp | 2459885.989896027534 (2022-Nov-02.48989603) | 5.8485e-05 | TDB |
period | 1411.768542531005 3.87 | 6.8658e-06 1.88e-08 | d yr |
n | .2549993070072206 | 1.2401e-09 | deg/d |
Q | 2.852421158326306 | 9.2481e-09 | au |
|
| | Orbit Determination Parameters
Additional Information
|